Weather History for Laramie, WY

Change the Weather History Date:

Friday, August 9, 2013

  Actual Average Record
Temperature  
Mean Temperature 57 °F 64 °F  
Max Temperature 74 °F 79 °F 90 °F (2000)
Min Temperature 39 °F 48 °F 39 °F (2013)
Degree Days  
Heating Degree Days 8 2  
Month to date heating degree days 18 18  
Since 1 June heating degree days 143 328  
Since 1 July heating degree days 40 87  
Cooling Degree Days 0 1  
Month to date cooling degree days 10 9  
Year to date cooling degree days 104 56  
Since 1 June cooling degree days 104 56  
Growing Degree Days 6 (Base 50)    
Moisture  
Dew Point 42 °F    
Average Humidity 64    
Maximum Humidity 100    
Minimum Humidity 27    
Precipitation  
Precipitation T in 0.04 in 0.60 in (1981)
Month to date precipitation 0.12 0.42  
Year to date precipitation 5.42 7.34  
Sea Level Pressure  
Sea Level Pressure 30.08 in    
Wind  
Wind Speed 9 mph (South)    
Max Wind Speed 23 mph    
Max Gust Speed 29 mph    
Visibility 10 miles    
Events Rain , Thunderstorm    
T = Trace of Precipitation, MM = Missing Value Source: NWS Daily Summary

Daily Weather History Graph

Daily Weather History Graph

Search for Another Location

Airport:

Trip Planner

Search our weather history database for the weather conditions in past years. The results will help you decide how hot, cold, wet, or windy it might be!

Date:

Astronomy

Aug. 09, 2013 Rise Set
Actual Time 6:06 AM MDT 8:09 PM MDT
Civil Twilight 5:35 AM MDT 8:39 PM MDT
Nautical Twilight 4:58 AM MDT 9:16 PM MDT
Astronomical Twilight 4:18 AM MDT 9:56 PM MDT
Moon 8:57 AM MDT (8/9) 9:17 PM MDT (8/9)
Length of Visible Light 15h 03m
Length of Day
14h 03m
Waxing Crescent, 8% of the Moon is Illuminated
Aug 9
Waxing Crescent
Aug 14
First Quarter
Aug 20
Full
Aug 28
Last Quarter
Sep 5
New

Hourly Weather History & Observations

Time (MDT) Temp. Windchill Dew Point Humidity Pressure Visibility Wind Dir Wind Speed Gust Speed Precip Events Conditions
12:53 AM 45.0 °F 41.8 °F 41.0 °F 86% 30.04 in 10.0 mi WSW 5.8 mph - N/A   Clear
1:53 AM 44.1 °F 40.1 °F 41.0 °F 89% 30.04 in 10.0 mi SSW 6.9 mph - N/A   Partly Cloudy
2:53 AM 42.1 °F 39.2 °F 41.0 °F 96% 30.06 in 8.0 mi WSW 4.6 mph - N/A   Clear
3:53 AM 39.9 °F 34.5 °F 39.0 °F 97% 30.10 in 7.0 mi SSE 8.1 mph - N/A   Clear
4:53 AM 42.1 °F 37.7 °F 39.0 °F 89% 30.09 in 10.0 mi SE 6.9 mph - N/A   Clear
5:53 AM 42.1 °F 37.1 °F 39.9 °F 92% 30.09 in 10.0 mi SE 8.1 mph - N/A   Clear
6:53 AM 44.1 °F 39.5 °F 41.0 °F 89% 30.07 in 10.0 mi South 8.1 mph - N/A   Clear
7:53 AM 48.0 °F - 43.0 °F 83% 30.08 in 9.0 mi North - - N/A   Clear
8:53 AM 55.0 °F - 44.1 °F 67% 30.10 in 10.0 mi South 9.2 mph - N/A   Clear
9:53 AM 64.0 °F - 45.0 °F 50% 30.06 in 10.0 mi ESE 10.4 mph - N/A   Clear
10:53 AM 69.1 °F - 39.9 °F 35% 30.03 in 10.0 mi SSE 10.4 mph 17.3 mph N/A   Clear
11:53 AM 72.0 °F - 39.0 °F 30% 30.03 in 10.0 mi SSE 18.4 mph 24.2 mph N/A   Clear
12:53 PM 73.0 °F - 37.9 °F 28% 30.01 in 10.0 mi SSE 11.5 mph 21.9 mph N/A   Clear
1:53 PM 72.0 °F - 37.0 °F 28% 30.01 in 10.0 mi SSE 10.4 mph 19.6 mph N/A   Clear
2:19 PM 69.8 °F - 39.2 °F 33% 30.28 in 10.0 mi SSE 21.9 mph 27.6 mph N/A Thunderstorm Partly Cloudy
2:53 PM 66.9 °F - 41.0 °F 39% 30.08 in 10.0 mi South 15.0 mph - N/A Thunderstorm Thunderstorm
3:06 PM 64.4 °F - 42.8 °F 45% 30.32 in 10.0 mi WSW 13.8 mph - N/A   Overcast
3:53 PM 61.0 °F - 45.0 °F 56% 30.12 in 10.0 mi SW 17.3 mph 23.0 mph 0.00 in Rain Light Rain
4:53 PM 62.1 °F - 46.0 °F 56% 30.08 in 10.0 mi SSW 17.3 mph - 0.00 in   Partly Cloudy
5:53 PM 66.0 °F - 39.9 °F 38% 30.06 in 10.0 mi SSW 12.7 mph - N/A   Clear
6:53 PM 63.0 °F - 45.0 °F 52% 30.08 in 10.0 mi SW 11.5 mph - N/A   Clear
7:53 PM 60.1 °F - 46.0 °F 60% 30.09 in 10.0 mi South 4.6 mph - N/A   Mostly Cloudy
8:53 PM 59.0 °F - 45.0 °F 60% 30.07 in 10.0 mi Calm Calm - N/A   Clear
9:53 PM 54.0 °F - 44.1 °F 69% 30.06 in 10.0 mi Calm Calm - N/A   Clear
10:53 PM 51.1 °F - 43.0 °F 74% 30.06 in 10.0 mi Calm Calm - N/A   Clear
11:53 PM 50.0 °F - 43.0 °F 77% 30.07 in 10.0 mi SE 6.9 mph - N/A   Mostly Cloudy